| time (UTC) | temp F | wind direction | speed MPH | gust MPH | rain 1hr in | rain 24hr in | rain mn in | humidity % | barometer mb |
| 20260831232215 | 66 | 248 | 11.0 | 21.0 | 0.00 | 0.00 | 0.00 | 59 | 1020.5 |
| 20260831231215 | 65 | 208 | 9.0 | 16.0 | 0.00 | 0.00 | 0.00 | 63 | 1020.1 |
| 20260831230215 | 67 | 197 | 12.0 | 18.0 | 0.00 | 0.00 | 0.00 | 59 | 1020.1 |
| 20260831225215 | 68 | 225 | 7.0 | 16.0 | 0.00 | 0.00 | 0.00 | 61 | 1020.0 |
| 20260831224255 | 73 | 184 | 17.0 | 26.0 | 0.00 | 0.00 | 0.00 | 44 | 1019.7 |
| 20260831223215 | 74 | 159 | 10.0 | 22.0 | 0.00 | 0.00 | 0.00 | 44 | 1019.3 |
| 20260831222237 | 73 | 159 | 9.0 | 15.0 | 0.00 | 0.00 | 0.00 | 48 | 1018.4 |
| 20260831221217 | 73 | 144 | 15.0 | 28.0 | 0.00 | 0.00 | 0.00 | 51 | 1018.4 |
| 20260831220215 | 74 | 150 | 11.0 | 19.0 | 0.00 | 0.00 | 0.00 | 48 | 1018.4 |
| 20260831215217 | 75 | 157 | 15.0 | 26.0 | 0.00 | 0.00 | 0.00 | 47 | 1018.8 |
| 20260831214217 | 76 | 143 | 18.0 | 27.0 | 0.00 | 0.00 | 0.00 | 47 | 1018.7 |
| 20260831213217 | 78 | 149 | 19.0 | 30.0 | 0.00 | 0.00 | 0.00 | 47 | 1019.3 |
| 20260831212217 | 78 | 157 | 11.0 | 23.0 | 0.00 | 0.00 | 0.00 | 45 | 1019.2 |
| 20260831211217 | 80 | 128 | 7.0 | 20.0 | 0.00 | 0.00 | 0.00 | 41 | 1019.4 |
| 20260831210217 | 80 | 108 | 6.0 | 9.0 | 0.00 | 0.00 | 0.00 | 42 | 1019.7 |
| 20260831205216 | 80 | 100 | 7.0 | 11.0 | 0.00 | 0.00 | 0.00 | 42 | 1019.8 |
| 20260831204217 | 79 | 121 | 8.0 | 14.0 | 0.00 | 0.00 | 0.00 | 39 | 1019.9 |
| 20260831203217 | 79 | 108 | 8.0 | 12.0 | 0.00 | 0.00 | 0.00 | 40 | 1020.3 |
| 20260831202216 | 79 | 102 | 6.0 | 15.0 | 0.00 | 0.00 | 0.00 | 41 | 1020.5 |
| 20260831201217 | 78 | 99 | 3.0 | 13.0 | 0.00 | 0.00 | 0.00 | 44 | 1020.6 |
| 20260831200216 | 79 | 112 | 5.0 | 12.0 | 0.00 | 0.00 | 0.00 | 44 | 1020.8 |
| 20260831195216 | 78 | 117 | 8.0 | 15.0 | 0.00 | 0.00 | 0.00 | 44 | 1021.0 |
| 20260831194216 | 78 | 111 | 8.0 | 12.0 | 0.00 | 0.00 | 0.00 | 43 | 1021.1 |
| 20260831193216 | 78 | 128 | 9.0 | 13.0 | 0.00 | 0.00 | 0.00 | 45 | 1021.1 |
| 20260831192217 | 78 | 106 | 7.0 | 14.0 | 0.00 | 0.00 | 0.00 | 45 | 1020.9 |
| 20260831191216 | 77 | 85 | 6.0 | 12.0 | 0.00 | 0.00 | 0.00 | 48 | 1021.3 |
| 20260831190216 | 77 | 109 | 7.0 | 10.0 | 0.00 | 0.00 | 0.00 | 48 | 1021.7 |
| 20260831185236 | 76 | 111 | 5.0 | 8.0 | 0.00 | 0.00 | 0.00 | 49 | 1021.6 |
| 20260831184237 | 77 | 124 | 6.0 | 10.0 | 0.00 | 0.00 | 0.00 | 47 | 1022.0 |
| 20260831183256 | 77 | 114 | 6.0 | 11.0 | 0.00 | 0.00 | 0.00 | 48 | 1022.2 |
| 20260831182216 | 76 | 111 | 5.0 | 8.0 | 0.00 | 0.00 | 0.00 | 50 | 1022.4 |
| 20260831181216 | 75 | 134 | 5.0 | 9.0 | 0.00 | 0.00 | 0.00 | 51 | 1022.2 |
| 20260831180216 | 74 | 93 | 5.0 | 7.0 | 0.00 | 0.00 | 0.00 | 51 | 1022.3 |
| 20260831175216 | 74 | 153 | 7.0 | 11.0 | 0.00 | 0.00 | 0.00 | 49 | 1022.4 |
| 20260831174216 | 75 | 143 | 8.0 | 11.0 | 0.00 | 0.00 | 0.00 | 50 | 1022.4 |
| 20260831173216 | 74 | 100 | 10.0 | 13.0 | 0.00 | 0.00 | 0.00 | 51 | 1022.4 |
| 20260831172216 | 73 | 100 | 9.0 | 13.0 | 0.00 | 0.00 | 0.00 | 51 | 1022.5 |
| 20260831171216 | 73 | 139 | 7.0 | 12.0 | 0.00 | 0.00 | 0.00 | 51 | 1022.5 |
| 20260831170216 | 72 | 113 | 7.0 | 11.0 | 0.00 | 0.00 | 0.00 | 53 | 1022.2 |
| 20260831165216 | 72 | 128 | 3.0 | 6.0 | 0.00 | 0.00 | 0.00 | 54 | 1022.3 |
| 20260831164216 | 72 | 93 | 3.0 | 8.0 | 0.00 | 0.00 | 0.00 | 55 | 1022.1 |
| 20260831163216 | 72 | 112 | 4.0 | 7.0 | 0.00 | 0.00 | 0.00 | 56 | 1022.4 |
| 20260831162216 | 72 | 123 | 3.0 | 7.0 | 0.00 | 0.00 | 0.00 | 56 | 1022.3 |
| 20260831161216 | 71 | 135 | 3.0 | 5.0 | 0.00 | 0.00 | 0.00 | 56 | 1021.9 |
| 20260831160216 | 72 | 134 | 1.0 | 4.0 | 0.00 | 0.00 | 0.00 | 55 | 1022.2 |
| 20260831155216 | 72 | 140 | 3.0 | 4.0 | 0.00 | 0.00 | 0.00 | 54 | 1022.0 |
| 20260831154236 | 71 | 245 | 2.0 | 3.0 | 0.00 | 0.00 | 0.00 | 55 | 1021.7 |
| 20260831153216 | 70 | 139 | 1.0 | 3.0 | 0.00 | 0.00 | 0.00 | 57 | 1021.8 |
| 20260831152216 | 70 | 182 | 2.0 | 6.0 | 0.00 | 0.00 | 0.00 | 56 | 1021.9 |
| 20260831151216 | 70 | 98 | 1.0 | 2.0 | 0.00 | 0.00 | 0.00 | 57 | 1021.9 |
| 20260831150236 | 70 | 105 | 0.0 | 2.0 | 0.00 | 0.00 | 0.00 | 59 | 1022.4 |
| 20260831145216 | 69 | 135 | 1.0 | 3.0 | 0.00 | 0.00 | 0.00 | 63 | 1022.3 |
| 20260831144236 | 68 | 107 | 1.0 | 3.0 | 0.00 | 0.00 | 0.00 | 65 | 1022.2 |
| 20260831143216 | 66 | 144 | 0.0 | 2.0 | 0.00 | 0.00 | 0.00 | 66 | 1021.8 |
| 20260831142216 | 65 | 56 | 0.0 | 1.0 | 0.00 | 0.00 | 0.00 | 68 | 1021.8 |
| 20260831141216 | 64 | 0.0 | 0.0 | 0.00 | 0.00 | 0.00 | 70 | 1021.5 | |
| 20260831140216 | 62 | 0.0 | 1.0 | 0.00 | 0.00 | 0.00 | 75 | 1021.9 | |
| 20260831135256 | 60 | 56 | 1.0 | 2.0 | 0.00 | 0.00 | 0.00 | 77 | 1021.3 |
| 20260831134216 | 60 | 56 | 2.0 | 3.0 | 0.00 | 0.00 | 0.00 | 77 | 1021.3 |
| 20260831133216 | 60 | 56 | 2.0 | 3.0 | 0.00 | 0.00 | 0.00 | 75 | 1021.6 |
| 20260831132215 | 61 | 56 | 0.0 | 2.0 | 0.00 | 0.01 | 0.00 | 73 | 1021.4 |
| 20260831131216 | 62 | 56 | 3.0 | 3.0 | 0.00 | 0.01 | 0.00 | 70 | 1021.6 |
| 20260831130216 | 63 | 56 | 1.0 | 2.0 | 0.00 | 0.01 | 0.00 | 70 | 1021.7 |
| 20260831125215 | 62 | 56 | 2.0 | 3.0 | 0.00 | 0.01 | 0.00 | 70 | 1021.5 |
| 20260831124216 | 62 | 55 | 3.0 | 4.0 | 0.00 | 0.01 | 0.00 | 70 | 1021.5 |
| 20260831123235 | 62 | 65 | 3.0 | 4.0 | 0.00 | 0.01 | 0.00 | 69 | 1021.8 |
| 20260831122215 | 62 | 82 | 2.0 | 3.0 | 0.00 | 0.01 | 0.00 | 71 | 1021.8 |
| 20260831121215 | 61 | 0 | 4.0 | 5.0 | 0.00 | 0.01 | 0.00 | 69 | 1021.7 |
| 20260831120215 | 62 | 313 | 3.0 | 4.0 | 0.00 | 0.01 | 0.00 | 69 | 1021.9 |
| 20260831115216 | 62 | 256 | 2.0 | 3.0 | 0.00 | 0.01 | 0.00 | 68 | 1021.9 |
| 20260831114215 | 62 | 310 | 4.0 | 7.0 | 0.00 | 0.01 | 0.00 | 68 | 1022.1 |
| 20260831113216 | 61 | 330 | 1.0 | 4.0 | 0.00 | 0.01 | 0.00 | 70 | 1021.7 |
| 20260831112215 | 61 | 344 | 5.0 | 8.0 | 0.00 | 0.01 | 0.00 | 71 | 1021.7 |
| 20260831111215 | 60 | 344 | 3.0 | 4.0 | 0.00 | 0.01 | 0.00 | 72 | 1021.6 |
| 20260831110215 | 59 | 344 | 1.0 | 3.0 | 0.00 | 0.01 | 0.00 | 72 | 1021.3 |
| 20260831105215 | 60 | 0.0 | 0.0 | 0.00 | 0.01 | 0.00 | 71 | 1021.3 | |
| 20260831104215 | 60 | 344 | 2.0 | 4.0 | 0.00 | 0.01 | 0.00 | 71 | 1021.1 |
| 20260831103215 | 61 | 344 | 2.0 | 3.0 | 0.00 | 0.01 | 0.00 | 69 | 1020.7 |
| 20260831102215 | 61 | 344 | 0.0 | 1.0 | 0.00 | 0.01 | 0.00 | 70 | 1020.7 |
| 20260831101215 | 60 | 344 | 0.0 | 2.0 | 0.00 | 0.01 | 0.00 | 72 | 1020.6 |
| 20260831100215 | 61 | 344 | 0.0 | 1.0 | 0.00 | 0.01 | 0.00 | 71 | 1020.8 |
| 20260831095215 | 61 | 0.0 | 1.0 | 0.00 | 0.01 | 0.00 | 71 | 1020.7 | |
| 20260831094215 | 60 | 344 | 2.0 | 4.0 | 0.00 | 0.01 | 0.00 | 73 | 1020.5 |
| 20260831093216 | 61 | 344 | 2.0 | 3.0 | 0.00 | 0.01 | 0.00 | 72 | 1021.0 |
| 20260831092215 | 61 | 344 | 1.0 | 2.0 | 0.00 | 0.01 | 0.00 | 73 | 1020.9 |
| 20260831091235 | 61 | 344 | 0.0 | 2.0 | 0.00 | 0.01 | 0.00 | 72 | 1020.9 |
| 20260831090235 | 61 | 0.0 | 0.0 | 0.00 | 0.02 | 0.00 | 72 | 1020.5 | |
| 20260831085215 | 61 | 344 | 2.0 | 2.0 | 0.00 | 0.02 | 0.00 | 71 | 1020.5 |
| 20260831084215 | 62 | 344 | 2.0 | 3.0 | 0.00 | 0.02 | 0.00 | 70 | 1020.9 |
| 20260831083215 | 63 | 344 | 0.0 | 1.0 | 0.00 | 0.02 | 0.00 | 69 | 1021.0 |
| 20260831082215 | 64 | 344 | 0.0 | 2.0 | 0.00 | 0.02 | 0.00 | 66 | 1021.0 |
| 20260831081215 | 64 | 344 | 4.0 | 6.0 | 0.00 | 0.02 | 0.00 | 67 | 1021.0 |
| 20260831080215 | 63 | 344 | 4.0 | 5.0 | 0.00 | 0.02 | 0.00 | 69 | 1021.2 |
| 20260831075215 | 63 | 344 | 4.0 | 6.0 | 0.00 | 0.02 | 0.00 | 70 | 1021.2 |
| 20260831074215 | 64 | 20 | 3.0 | 4.0 | 0.00 | 0.02 | 0.00 | 66 | 1021.2 |
| 20260831073215 | 65 | 0.0 | 1.0 | 0.00 | 0.02 | 0.00 | 67 | 1021.4 | |
| 20260831072215 | 64 | 317 | 7.0 | 10.0 | 0.00 | 0.02 | 0.00 | 69 | 1021.1 |
| 20260831071217 | 62 | 355 | 4.0 | 5.0 | 0.00 | 0.02 | 0.00 | 73 | 1021.1 |
| 20260831070237 | 62 | 355 | 2.0 | 3.0 | 0.00 | 0.03 | 0.00 | 72 | 1021.0 |
| 20260831065217 | 63 | 355 | 2.0 | 3.0 | 0.00 | 0.03 | 0.00 | 72 | 1021.1 |
| 20260831064217 | 63 | 355 | 4.0 | 5.0 | 0.00 | 0.03 | 0.00 | 71 | 1020.9 |
| 20260831063217 | 63 | 355 | 1.0 | 2.0 | 0.00 | 0.03 | 0.00 | 69 | 1020.8 |
| 20260831062217 | 64 | 355 | 2.0 | 3.0 | 0.00 | 0.03 | 0.00 | 67 | 1020.9 |
| 20260831061217 | 65 | 355 | 3.0 | 5.0 | 0.00 | 0.03 | 0.00 | 67 | 1021.1 |
| 20260831060217 | 64 | 355 | 3.0 | 4.0 | 0.00 | 0.03 | 0.00 | 69 | 1020.7 |
| 20260831055216 | 64 | 355 | 3.0 | 5.0 | 0.00 | 0.03 | 0.03 | 70 | 1020.9 |
| 20260831054256 | 64 | 355 | 4.0 | 4.0 | 0.00 | 0.03 | 0.03 | 69 | 1021.0 |
| 20260831053216 | 64 | 355 | 3.0 | 3.0 | 0.00 | 0.03 | 0.03 | 67 | 1020.8 |
| 20260831052216 | 65 | 355 | 2.0 | 3.0 | 0.00 | 0.03 | 0.03 | 68 | 1020.8 |
| 20260831051216 | 65 | 355 | 2.0 | 4.0 | 0.00 | 0.03 | 0.03 | 67 | 1020.9 |
| 20260831050215 | 65 | 348 | 1.0 | 3.0 | 0.00 | 0.04 | 0.03 | 67 | 1020.6 |
| 20260831045216 | 66 | 348 | 2.0 | 2.0 | 0.00 | 0.06 | 0.03 | 64 | 1020.8 |
| 20260831044236 | 65 | 348 | 1.0 | 2.0 | 0.00 | 0.07 | 0.03 | 64 | 1020.4 |
| 20260831043215 | 65 | 348 | 1.0 | 2.0 | 0.00 | 0.09 | 0.03 | 63 | 1020.3 |
| 20260831042215 | 65 | 348 | 2.0 | 2.0 | 0.00 | 0.10 | 0.03 | 62 | 1020.1 |
| 20260831041215 | 66 | 348 | 1.0 | 2.0 | 0.00 | 0.10 | 0.03 | 63 | 1020.1 |
| 20260831040216 | 66 | 348 | 2.0 | 3.0 | 0.00 | 0.10 | 0.03 | 61 | 1019.9 |
| 20260831035216 | 66 | 348 | 2.0 | 3.0 | 0.00 | 0.10 | 0.03 | 61 | 1019.9 |
| 20260831034216 | 66 | 348 | 2.0 | 3.0 | 0.00 | 0.10 | 0.03 | 62 | 1019.7 |
| 20260831033215 | 66 | 49 | 2.0 | 3.0 | 0.00 | 0.11 | 0.03 | 63 | 1019.8 |
| 20260831032216 | 66 | 49 | 1.0 | 2.0 | 0.00 | 0.13 | 0.03 | 64 | 1019.9 |
| 20260831031215 | 67 | 49 | 2.0 | 3.0 | 0.00 | 0.13 | 0.03 | 63 | 1020.3 |
| 20260831030215 | 67 | 49 | 2.0 | 3.0 | 0.00 | 0.13 | 0.03 | 63 | 1019.6 |
| 20260831025216 | 68 | 49 | 1.0 | 1.0 | 0.00 | 0.13 | 0.03 | 62 | 1019.9 |
| 20260831024215 | 68 | 49 | 2.0 | 4.0 | 0.00 | 0.13 | 0.03 | 61 | 1019.7 |
| 20260831023235 | 68 | 31 | 2.0 | 3.0 | 0.00 | 0.13 | 0.03 | 61 | 1019.3 |
| 20260831022336 | 68 | 42 | 4.0 | 5.0 | 0.00 | 0.13 | 0.03 | 64 | 1019.2 |
| 20260831021215 | 68 | 55 | 2.0 | 4.0 | 0.00 | 0.13 | 0.03 | 66 | 1019.3 |
| 20260831020215 | 69 | 15 | 1.0 | 3.0 | 0.00 | 0.13 | 0.03 | 66 | 1019.2 |
| 20260831015215 | 70 | 40 | 5.0 | 7.0 | 0.00 | 0.13 | 0.03 | 63 | 1019.5 |
| 20260831014215 | 71 | 42 | 6.0 | 9.0 | 0.00 | 0.13 | 0.03 | 60 | 1019.4 |
| 20260831013236 | 73 | 58 | 7.0 | 10.0 | 0.00 | 0.13 | 0.03 | 53 | 1019.5 |
| 20260831012215 | 74 | 48 | 11.0 | 14.0 | 0.00 | 0.13 | 0.03 | 51 | 1019.7 |
| 20260831011215 | 74 | 39 | 8.0 | 12.0 | 0.00 | 0.16 | 0.03 | 51 | 1019.8 |
| 20260831010215 | 75 | 41 | 10.0 | 13.0 | 0.00 | 0.25 | 0.03 | 51 | 1019.9 |
| 20260831005215 | 75 | 41 | 10.0 | 14.0 | 0.00 | 0.25 | 0.03 | 50 | 1020.0 |
| 20260831004215 | 76 | 38 | 7.0 | 10.0 | 0.00 | 0.25 | 0.03 | 50 | 1020.2 |
| 20260831003217 | 75 | 14 | 8.0 | 12.0 | 0.00 | 0.25 | 0.03 | 49 | 1020.3 |
| 20260831002215 | 76 | 14 | 9.0 | 11.0 | 0.00 | 0.25 | 0.03 | 47 | 1020.6 |
| 20260831001215 | 77 | 10 | 10.0 | 13.0 | 0.00 | 0.25 | 0.03 | 46 | 1020.8 |
| 20260831000215 | 77 | 342 | 5.0 | 11.0 | 0.00 | 0.25 | 0.03 | 46 | 1020.7 |
| 20260830235215 | 77 | 11 | 5.0 | 13.0 | 0.00 | 0.25 | 0.03 | 49 | 1020.2 |
| 20260830234215 | 76 | 34 | 6.0 | 11.0 | 0.00 | 0.25 | 0.03 | 49 | 1020.2 |
| 20260830233215 | 75 | 44 | 6.0 | 11.0 | 0.00 | 0.25 | 0.03 | 50 | 1020.4 |